sampling_time,wmo_synop_id,msc_id,stn_nam,stn_elev,lat,long,stn_typ,date_tm,rpt_typ,result_time,crnt_buoy_lat,crnt_buoy_lat_qa_summary,crnt_buoy_long,crnt_buoy_long_qa_summary,avg_air_temp_pst10mts,avg_air_temp_pst10mts_qa_summary,avg_sea_sfc_temp_pst10mts,avg_sea_sfc_temp_pst10mts_qa_summary,avg_batry_volt_pst10mts,avg_batry_volt_pst10mts_qa_summary,avg_solr_panl_crnt_pst10mts,avg_solr_panl_crnt_pst10mts_qa_summary,avg_wtr_lvl_snsr_volt_pst10mts,avg_wtr_lvl_snsr_volt_pst10mts_qa_summary,avg_wave_hgt_pst20mts,avg_wave_hgt_pst20mts_qa_summary,pk_wave_hgt_pst20mts,pk_wave_hgt_pst20mts_qa_summary,sig_wave_pd_pst20mts,sig_wave_pd_pst20mts_qa_summary,sig_wave_hgt_pst20mts,sig_wave_hgt_pst20mts_qa_summary,avg_max_wave_hgt_pst20mts,avg_max_wave_hgt_pst20mts_qa_summary,avg_max_wave_pd_pst20mts,avg_max_wave_pd_pst20mts_qa_summary,avg_wave_pd_pst20mts,avg_wave_pd_pst20mts_qa_summary,pk_wave_pd_pst20mts,pk_wave_pd_pst20mts_qa_summary,avg_stn_pres_pst10mts,avg_stn_pres_pst10mts_qa_summary,avg_wnd_spd_pst10mts,avg_wnd_spd_pst10mts_qa_summary,avg_wnd_dir_pst10mts,avg_wnd_dir_pst10mts_qa_summary,max_avg_wnd_spd_pst10mts,max_avg_wnd_spd_pst10mts_qa_summary,wnd_snsr_vert_disp,wnd_snsr_vert_disp_qa_summary,pres_tend_char_pst3hrs,pres_tend_char_pst3hrs_data_flag,pres_tend_amt_pst3hrs,pres_tend_amt_pst3hrs_data_flag,avg_mslp_pst10mts,avg_mslp_pst10mts_data_flag,avg_stn_pres_pst10mts_1,avg_stn_pres_pst10mts_2,avg_wnd_spd_pst10mts_1,avg_wnd_spd_pst10mts_2,avg_wnd_dir_pst10mts_1,avg_wnd_dir_pst10mts_2,max_avg_wnd_spd_pst10mts_1,max_avg_wnd_spd_pst10mts_2,wnd_snsr_vert_disp_1,wnd_snsr_vert_disp_2
2020-10-13T00:00:00Z,44488,9302000,East Chedabucto Bay,0.0,45.445,-60.9538,18,2020-10-13T00:00:00.000Z,108,2020-10-13T00:09:21.668Z,45.44565,100,-60.95478000000001,100,8.6,100,11.9,100,12.7,100,0.0,100,3.6,100,0.1,100,0.4,100,7.4,100,0.2,100,0.3,100,7.6,100,5.3,100,9.1,100,1029.0,100,13.0,100,0,100,15.1,100,5.0,100,1,1,0.6,1,1029.0,1,1029.0,1029.0,13.0,13.0,0,1,15.1,15.5,5.0,4.0
2020-10-13T00:10:00Z,44488,9302000,East Chedabucto Bay,0.0,45.445,-60.9538,18,2020-10-13T00:10:00.000Z,110,2020-10-13T00:19:13.166Z,,-1,,-1,9.3,100,12.6,100,12.8,100,0.0,100,3.6,100,,-1,,-1,,-1,,-1,,-1,,-1,,-1,,-1,1029.0,100,12.6,100,2,100,14.8,100,5.0,100,1,1,0.6,1,1029.0,1,1029.0,1029.0,12.6,13.0,2,3,14.8,14.8,5.0,4.0
2020-10-13T00:20:00Z,44488,9302000,East Chedabucto Bay,0.0,45.445,-60.9538,18,2020-10-13T00:20:00.000Z,110,2020-10-13T00:28:41.962Z,45.44567,100,-60.95478000000001,100,8.6,100,11.9,100,12.7,100,0.0,100,3.6,100,,-1,,-1,,-1,,-1,,-1,,-1,,-1,,-1,1029.1,100,11.9,100,359,100,14.0,100,5.0,100,1,1,0.7,1,1029.1,1,1029.1,1029.1,11.9,11.9,359,1,14.0,14.4,5.0,4.0
2020-10-13T00:30:00Z,44488,9302000,East Chedabucto Bay,0.0,45.445,-60.9538,18,2020-10-13T00:30:00.000Z,110,2020-10-13T00:37:37.714Z,45.445679999999996,100,-60.95478000000001,100,8.6,100,11.9,100,12.7,100,0.0,100,3.6,100,,-1,,-1,,-1,,-1,,-1,,-1,,-1,,-1,1029.2,100,11.5,100,358,100,13.7,100,5.0,100,2,1,0.7,1,1029.2,1,1029.2,1029.2,11.5,11.5,358,359,13.7,13.7,5.0,4.0
2020-10-13T00:40:00Z,44488,9302000,East Chedabucto Bay,0.0,45.445,-60.9538,18,2020-10-13T00:40:00.000Z,110,2020-10-13T00:49:43.830Z,45.44567,100,-60.9548,100,8.5,100,11.9,100,12.7,100,0.0,100,3.6,100,,-1,,-1,,-1,,-1,,-1,,-1,,-1,,-1,1029.4,100,10.8,100,355,100,13.7,100,5.0,100,3,1,0.8,1,1029.4,1,1029.4,1029.4,10.8,10.8,355,356,13.7,14.0,5.0,4.0
2020-10-13T00:50:00Z,44488,9302000,East Chedabucto Bay,0.0,45.445,-60.9538,18,2020-10-13T00:50:00.000Z,110,2020-10-13T00:57:43.087Z,45.44567,100,-60.9548,100,8.4,100,11.9,100,12.7,100,0.0,100,3.6,100,,-1,,-1,,-1,,-1,,-1,,-1,,-1,,-1,1029.5,100,11.2,100,1,100,13.3,100,5.0,100,3,1,0.9,1,1029.5,1,1029.5,1029.5,11.2,11.2,1,2,13.3,13.3,5.0,4.0
2020-10-13T01:00:00Z,44488,9302000,East Chedabucto Bay,0.0,45.445,-60.9538,18,2020-10-13T01:00:00.000Z,108,2020-10-13T01:07:42.101Z,45.44565,100,-60.9548,100,8.4,100,11.9,100,12.7,100,0.0,100,3.6,100,0.2,100,0.4,100,7.4,100,0.3,100,0.3,100,7.8,100,6.0,100,7.7,100,1029.5,100,12.6,100,5,100,14.8,100,5.0,100,3,1,0.9,1,1029.5,1,1029.5,1029.5,12.6,12.6,5,6,14.8,14.8,5.0,4.0
2020-10-13T01:10:00Z,44488,9302000,East Chedabucto Bay,0.0,45.445,-60.9538,18,2020-10-13T01:10:00.000Z,110,2020-10-13T01:20:46.248Z,45.44567,100,-60.95482,100,8.4,100,11.9,100,12.7,100,0.0,100,3.6,100,,-1,,-1,,-1,,-1,,-1,,-1,,-1,,-1,1029.6,100,13.0,100,4,100,14.4,100,5.0,100,3,1,0.9,1,1029.6,1,1029.6,1029.6,13.0,13.0,4,5,14.4,14.8,5.0,4.0
2020-10-13T01:20:00Z,44488,9302000,East Chedabucto Bay,0.0,45.445,-60.9538,18,2020-10-13T01:20:00.000Z,110,2020-10-13T01:27:58.592Z,45.44565,100,-60.9548,100,8.4,100,11.9,100,12.7,100,0.0,100,3.6,100,,-1,,-1,,-1,,-1,,-1,,-1,,-1,,-1,1029.6,100,12.6,100,6,100,14.4,100,5.0,100,3,1,0.8,1,1029.6,1,1029.6,1029.6,12.6,12.6,6,7,14.4,14.4,5.0,4.0
2020-10-13T01:30:00Z,44488,9302000,East Chedabucto Bay,0.0,45.445,-60.9538,18,2020-10-13T01:30:00.000Z,110,2020-10-13T01:38:00.712Z,45.44567,100,-60.95482,100,8.4,100,11.9,100,12.7,100,0.0,100,3.6,100,,-1,,-1,,-1,,-1,,-1,,-1,,-1,,-1,1029.6,100,12.6,100,5,100,14.4,100,5.0,100,3,1,0.7,1,1029.6,1,1029.6,1029.6,12.6,12.6,5,6,14.4,14.4,5.0,4.0
2020-10-13T01:40:00Z,44488,9302000,East Chedabucto Bay,0.0,45.445,-60.9538,18,2020-10-13T01:40:00.000Z,110,2020-10-13T01:47:55.085Z,45.44565,100,-60.95482,100,8.5,100,11.9,100,12.7,100,0.0,100,3.6,100,,-1,,-1,,-1,,-1,,-1,,-1,,-1,,-1,1029.6,100,12.6,100,12,100,15.1,100,5.0,100,3,1,0.7,1,1029.6,1,1029.6,1029.6,12.6,12.6,12,13,15.1,14.8,5.0,4.0
2020-10-13T01:50:00Z,44488,9302000,East Chedabucto Bay,0.0,45.445,-60.9538,18,2020-10-13T01:50:00.000Z,110,2020-10-13T01:57:56.942Z,45.44565,100,-60.9548,100,8.5,100,11.9,100,12.7,100,0.0,100,3.6,100,,-1,,-1,,-1,,-1,,-1,,-1,,-1,,-1,1029.6,100,13.0,100,10,100,15.5,100,5.0,100,3,1,0.7,1,1029.6,1,1029.6,1029.6,13.0,13.0,10,12,15.5,15.5,5.0,4.0
2020-10-13T02:00:00Z,44488,9302000,East Chedabucto Bay,0.0,45.445,-60.9538,18,2020-10-13T02:00:00.000Z,108,2020-10-13T02:07:58.051Z,45.44567,100,-60.95483,100,8.4,100,11.9,100,12.7,100,0.0,100,3.6,100,0.2,100,0.4,100,7.9,100,0.3,100,0.3,100,8.1,100,5.9,100,9.1,100,1029.7,100,13.0,100,12,100,15.8,100,5.0,100,3,1,0.8,1,1029.7,1,1029.7,1029.7,13.0,13.0,12,13,15.8,15.8,5.0,4.0
2020-10-13T02:10:00Z,44488,9302000,East Chedabucto Bay,0.0,45.445,-60.9538,18,2020-10-13T02:10:00.000Z,110,2020-10-13T02:21:02.483Z,45.44565,100,-60.95483,100,8.5,100,11.9,100,12.7,100,0.0,100,3.6,100,,-1,,-1,,-1,,-1,,-1,,-1,,-1,,-1,1029.7,100,11.5,100,6,100,14.0,100,5.0,100,3,1,0.7,1,1029.7,1,1029.7,1029.7,11.5,11.5,6,7,14.0,14.0,5.0,4.0
2020-10-13T02:20:00Z,44488,9302000,East Chedabucto Bay,0.0,45.445,-60.9538,18,2020-10-13T02:20:00.000Z,110,2020-10-13T02:28:06.179Z,45.44565,100,-60.95483,100,8.5,100,11.8,100,12.7,100,0.0,100,3.6,100,,-1,,-1,,-1,,-1,,-1,,-1,,-1,,-1,1029.6,100,11.9,100,14,100,14.4,100,5.0,100,1,1,0.7,1,1029.6,1,1029.6,1029.6,11.9,11.9,14,15,14.4,14.4,5.0,4.0
2020-10-13T02:30:00Z,44488,9302000,East Chedabucto Bay,0.0,45.445,-60.9538,18,2020-10-13T02:30:00.000Z,110,2020-10-13T02:38:03.087Z,45.44567,100,-60.95485,100,8.4,100,11.8,100,12.7,100,0.0,100,3.6,100,,-1,,-1,,-1,,-1,,-1,,-1,,-1,,-1,1029.6,100,13.0,100,18,100,15.8,100,5.0,100,1,1,0.7,1,1029.6,1,1029.6,1029.6,13.0,13.0,18,19,15.8,15.8,5.0,4.0
2020-10-13T02:40:00Z,44488,9302000,East Chedabucto Bay,0.0,45.445,-60.9538,18,2020-10-13T02:40:00.000Z,110,2020-10-13T02:48:17.583Z,45.44565,100,-60.95485,100,8.4,100,11.8,100,12.7,100,0.0,100,3.6,100,,-1,,-1,,-1,,-1,,-1,,-1,,-1,,-1,1029.7,100,13.0,100,22,100,15.8,100,5.0,100,1,1,0.8,1,1029.7,1,1029.7,1029.7,13.0,12.6,22,23,15.8,15.8,5.0,4.0
2020-10-13T02:50:00Z,44488,9302000,East Chedabucto Bay,0.0,45.445,-60.9538,18,2020-10-13T02:50:00.000Z,110,2020-10-13T02:58:16.018Z,45.44565,100,-60.95486999999999,100,8.6,100,11.8,100,12.7,100,0.0,100,3.6,100,,-1,,-1,,-1,,-1,,-1,,-1,,-1,,-1,1029.7,100,11.9,100,28,100,16.2,100,5.0,100,1,1,0.8,1,1029.7,1,1029.7,1029.7,11.9,11.9,28,29,16.2,15.1,5.0,4.0
2020-10-13T03:00:00Z,44488,9302000,East Chedabucto Bay,0.0,45.445,-60.9538,18,2020-10-13T03:00:00.000Z,108,2020-10-13T03:08:18.852Z,45.44565,100,-60.95486999999999,100,8.8,100,11.8,100,12.7,100,0.0,100,3.6,100,0.1,100,0.3,100,7.5,100,0.2,100,0.3,100,8.0,100,5.6,100,7.7,100,1029.6,100,11.9,100,38,100,15.1,100,5.0,100,1,1,0.7,1,1029.6,1,1029.6,1029.6,11.9,11.5,38,39,15.1,15.1,5.0,4.0
2020-10-13T03:10:00Z,44488,9302000,East Chedabucto Bay,0.0,45.445,-60.9538,18,2020-10-13T03:10:00.000Z,110,2020-10-13T03:21:20.161Z,45.44567,100,-60.95486999999999,100,8.9,100,11.8,100,12.7,100,0.0,100,3.6,100,,-1,,-1,,-1,,-1,,-1,,-1,,-1,,-1,1029.5,100,11.5,100,31,100,15.1,100,5.0,100,0,1,0.5,1,1029.5,1,1029.5,1029.5,11.5,11.2,31,32,15.1,14.8,5.0,4.0
2020-10-13T03:20:00Z,44488,9302000,East Chedabucto Bay,0.0,45.445,-60.9538,18,2020-10-13T03:20:00.000Z,110,2020-10-13T03:28:19.665Z,45.44565,100,-60.95488,100,8.9,100,11.8,100,12.7,100,0.0,100,3.6,100,,-1,,-1,,-1,,-1,,-1,,-1,,-1,,-1,1029.4,100,11.2,100,34,100,15.1,100,5.0,100,0,1,0.3,1,1029.4,1,1029.4,1029.4,11.2,10.8,34,35,15.1,14.8,5.0,4.0
2020-10-13T03:30:00Z,44488,9302000,East Chedabucto Bay,0.0,45.445,-60.9538,18,2020-10-13T03:30:00.000Z,110,2020-10-13T03:38:19.928Z,45.44567,100,-60.95488,100,8.9,100,11.8,100,12.7,100,0.0,100,3.6,100,,-1,,-1,,-1,,-1,,-1,,-1,,-1,,-1,1029.3,100,12.6,100,28,100,15.8,100,5.0,100,0,1,0.1,1,1029.3,1,1029.3,1029.3,12.6,12.2,28,29,15.8,15.1,5.0,4.0
2020-10-13T03:40:00Z,44488,9302000,East Chedabucto Bay,0.0,45.445,-60.9538,18,2020-10-13T03:40:00.000Z,110,2020-10-13T03:48:22.220Z,45.44565,100,-60.95488,100,8.8,100,11.8,100,12.7,100,0.0,100,3.6,100,,-1,,-1,,-1,,-1,,-1,,-1,,-1,,-1,1029.2,100,13.3,100,22,100,15.5,100,5.0,100,8,1,-0.2,1,1029.2,1,1029.2,1029.2,13.3,12.6,22,23,15.5,15.5,5.0,4.0
2020-10-13T03:50:00Z,44488,9302000,East Chedabucto Bay,0.0,45.445,-60.9538,18,2020-10-13T03:50:00.000Z,110,2020-10-13T03:57:23.305Z,45.44565,100,-60.95485,100,8.7,100,11.8,100,12.7,100,0.0,100,3.6,100,,-1,,-1,,-1,,-1,,-1,,-1,,-1,,-1,1029.1,100,13.7,100,20,100,17.6,100,5.0,100,8,1,-0.4,1,1029.1,1,1029.1,1029.1,13.7,13.3,20,21,17.6,17.3,5.0,4.0
2020-10-13T04:00:00Z,44488,9302000,East Chedabucto Bay,0.0,45.445,-60.9538,18,2020-10-13T04:00:00.000Z,108,2020-10-13T04:08:24.151Z,45.44565,100,-60.95488,100,8.7,100,11.8,100,12.7,100,0.0,100,3.6,100,0.1,100,0.4,100,7.2,100,0.2,100,0.3,100,7.3,100,5.5,100,7.7,100,1029.1,100,13.3,100,20,100,16.9,100,5.0,100,8,1,-0.4,1,1029.1,1,1029.1,1029.1,13.3,13.0,20,21,16.9,17.3,5.0,4.0
2020-10-13T04:10:00Z,44488,9302000,East Chedabucto Bay,0.0,45.445,-60.9538,18,2020-10-13T04:10:00.000Z,110,2020-10-13T04:20:34.013Z,45.44567,100,-60.95488,100,8.8,100,11.8,100,12.7,100,0.0,100,3.6,100,,-1,,-1,,-1,,-1,,-1,,-1,,-1,,-1,1029.1,100,13.0,100,31,100,16.6,100,5.0,100,8,1,-0.5,1,1029.1,1,1029.1,1029.1,13.0,12.6,31,33,16.6,16.6,5.0,4.0
2020-10-13T04:20:00Z,44488,9302000,East Chedabucto Bay,0.0,45.445,-60.9538,18,2020-10-13T04:20:00.000Z,110,2020-10-13T04:27:38.320Z,45.44567,100,-60.95488,100,8.8,100,11.8,100,12.7,100,0.0,100,3.6,100,,-1,,-1,,-1,,-1,,-1,,-1,,-1,,-1,1029.1,100,13.0,100,31,100,14.8,100,5.0,100,8,1,-0.5,1,1029.1,1,1029.1,1029.1,13.0,12.6,31,32,14.8,15.1,5.0,4.0
2020-10-13T04:30:00Z,44488,9302000,East Chedabucto Bay,0.0,45.445,-60.9538,18,2020-10-13T04:30:00.000Z,110,2020-10-13T04:37:42.597Z,45.44567,100,-60.95488,100,8.7,100,11.8,100,12.7,100,0.0,100,3.6,100,,-1,,-1,,-1,,-1,,-1,,-1,,-1,,-1,1029.1,100,12.6,100,28,100,16.6,100,5.0,100,8,1,-0.5,1,1029.1,1,1029.1,1029.1,12.6,12.2,28,29,16.6,16.6,5.0,4.0
2020-10-13T04:40:00Z,44488,9302000,East Chedabucto Bay,0.0,45.445,-60.9538,18,2020-10-13T04:40:00.000Z,110,2020-10-13T04:47:43.187Z,45.44565,100,-60.95488,100,8.5,100,11.8,100,12.6,100,0.0,100,3.6,100,,-1,,-1,,-1,,-1,,-1,,-1,,-1,,-1,1029.1,100,13.7,100,13,100,16.2,100,5.0,100,8,1,-0.5,1,1029.1,1,1029.1,1029.1,13.7,13.3,13,14,16.2,15.8,5.0,4.0
2020-10-13T04:50:00Z,44488,9302000,East Chedabucto Bay,0.0,45.445,-60.9538,18,2020-10-13T04:50:00.000Z,110,2020-10-13T04:57:42.938Z,45.44563,100,-60.95486999999999,100,8.5,100,11.8,100,12.6,100,0.0,100,3.6,100,,-1,,-1,,-1,,-1,,-1,,-1,,-1,,-1,1029.2,100,13.0,100,15,100,16.9,100,5.0,100,5,1,-0.4,1,1029.2,1,1029.2,1029.2,13.0,12.6,15,16,16.9,16.9,5.0,4.0
2020-10-13T05:00:00Z,44488,9302000,East Chedabucto Bay,0.0,45.445,-60.9538,18,2020-10-13T05:00:00.000Z,108,2020-10-13T05:07:44.249Z,45.44563,100,-60.9549,100,8.5,100,11.8,100,12.7,100,0.0,100,3.6,100,0.1,100,0.4,100,6.8,100,0.2,100,0.3,100,7.2,100,4.4,100,8.7,100,1029.3,100,11.9,100,27,100,15.5,100,5.0,100,5,1,-0.4,1,1029.3,1,1029.3,1029.3,11.9,11.5,27,28,15.5,15.5,5.0,4.0
2020-10-13T05:10:00Z,44488,9302000,East Chedabucto Bay,0.0,45.445,-60.9538,18,2020-10-13T05:10:00.000Z,110,2020-10-13T05:20:47.013Z,45.44565,100,-60.95488,100,8.7,100,11.8,100,12.7,100,0.0,100,3.6,100,,-1,,-1,,-1,,-1,,-1,,-1,,-1,,-1,1029.3,100,10.8,100,46,100,15.5,100,5.0,100,5,1,-0.5,1,1029.3,1,1029.3,1029.3,10.8,10.4,46,48,15.5,15.5,5.0,4.0
2020-10-13T05:20:00Z,44488,9302000,East Chedabucto Bay,0.0,45.445,-60.9538,18,2020-10-13T05:20:00.000Z,110,2020-10-13T05:27:45.179Z,45.44567,100,-60.954919999999994,100,8.8,100,11.8,100,12.7,100,0.0,100,3.6,100,,-1,,-1,,-1,,-1,,-1,,-1,,-1,,-1,1029.2,100,9.7,100,53,100,13.0,100,5.0,100,5,1,-0.5,1,1029.2,1,1029.2,1029.2,9.7,9.4,53,54,13.0,13.0,5.0,4.0
2020-10-13T05:30:00Z,44488,9302000,East Chedabucto Bay,0.0,45.445,-60.9538,18,2020-10-13T05:30:00.000Z,110,2020-10-13T05:37:55.672Z,45.4457,100,-60.95493,100,8.7,100,11.8,100,12.6,100,0.0,100,3.6,100,,-1,,-1,,-1,,-1,,-1,,-1,,-1,,-1,1029.1,100,11.5,100,39,100,16.6,100,5.0,100,6,1,-0.6,1,1029.1,1,1029.1,1029.1,11.5,11.2,39,40,16.6,16.6,5.0,4.0
2020-10-13T05:40:00Z,44488,9302000,East Chedabucto Bay,0.0,45.445,-60.9538,18,2020-10-13T05:40:00.000Z,110,2020-10-13T05:48:08.255Z,45.44567,100,-60.95492,100,8.5,100,11.8,100,12.6,100,0.0,100,3.6,100,,-1,,-1,,-1,,-1,,-1,,-1,,-1,,-1,1028.9,100,13.7,100,22,100,18.0,100,5.0,100,6,1,-0.8,1,1028.9,1,1028.9,1028.9,13.7,13.0,22,23,18.0,18.0,5.0,4.0
2020-10-13T05:50:00Z,44488,9302000,East Chedabucto Bay,0.0,45.445,-60.9538,18,2020-10-13T05:50:00.000Z,110,2020-10-13T05:58:15.171Z,45.44565,100,-60.95488,100,8.5,100,11.8,100,12.6,100,0.0,100,3.6,100,,-1,,-1,,-1,,-1,,-1,,-1,,-1,,-1,1028.8,100,13.0,100,25,100,17.6,100,5.0,100,6,1,-0.9,1,1028.8,1,1028.8,1028.8,13.0,12.6,25,27,17.6,17.3,5.0,4.0
2020-10-13T06:00:00Z,44488,9302000,East Chedabucto Bay,0.0,45.445,-60.9538,18,2020-10-13T06:00:00.000Z,108,2020-10-13T06:08:09.612Z,45.44565,100,-60.95493,100,8.2,100,11.8,100,12.6,100,0.0,100,3.6,100,0.2,100,0.4,100,5.3,100,0.3,100,0.3,100,6.4,100,3.6,100,8.0,100,1028.8,100,14.0,100,14,100,16.9,100,5.0,100,7,1,-0.8,1,1028.8,1,1028.8,1028.8,14.0,13.3,14,15,16.9,16.2,5.0,4.0
2020-10-13T06:10:00Z,44488,9302000,East Chedabucto Bay,0.0,45.445,-60.9538,18,2020-10-13T06:10:00.000Z,110,2020-10-13T06:21:17.036Z,45.44565,100,-60.954930000000004,100,8.2,100,11.8,100,12.6,100,0.0,100,3.6,100,,-1,,-1,,-1,,-1,,-1,,-1,,-1,,-1,1028.7,100,14.8,100,13,100,17.3,100,5.0,100,8,1,-0.8,1,1028.7,1,1028.7,1028.7,14.8,14.0,13,14,17.3,16.6,5.0,4.0
2020-10-13T06:20:00Z,44488,9302000,East Chedabucto Bay,0.0,45.445,-60.9538,18,2020-10-13T06:20:00.000Z,110,2020-10-13T06:28:14.846Z,45.44565,100,-60.95492,100,8.4,100,11.8,100,12.6,100,0.0,100,3.6,100,,-1,,-1,,-1,,-1,,-1,,-1,,-1,,-1,1028.6,100,12.2,100,24,100,15.8,100,5.0,100,8,1,-0.8,1,1028.6,1,1028.6,1028.6,12.2,11.9,24,25,15.8,15.8,5.0,4.0
2020-10-13T06:30:00Z,44488,9302000,East Chedabucto Bay,0.0,45.445,-60.9538,18,2020-10-13T06:30:00.000Z,110,2020-10-13T06:38:17.026Z,45.44567,100,-60.95495,100,8.8,100,11.8,100,12.6,100,0.0,100,3.6,100,,-1,,-1,,-1,,-1,,-1,,-1,,-1,,-1,1028.5,100,13.0,100,45,100,16.9,100,5.0,100,8,1,-0.8,1,1028.5,1,1028.5,1028.5,13.0,12.6,45,46,16.9,16.6,5.0,4.0
2020-10-13T06:40:00Z,44488,9302000,East Chedabucto Bay,0.0,45.445,-60.9538,18,2020-10-13T06:40:00.000Z,110,2020-10-13T06:48:16.754Z,45.44568,100,-60.954980000000006,100,8.8,100,12.1,100,12.6,100,0.0,100,3.6,100,,-1,,-1,,-1,,-1,,-1,,-1,,-1,,-1,1028.4,100,13.3,100,39,100,17.3,100,5.0,100,8,1,-0.8,1,1028.4,1,1028.4,1028.4,13.3,12.2,39,40,17.3,16.9,5.0,4.0
2020-10-13T06:50:00Z,44488,9302000,East Chedabucto Bay,0.0,45.445,-60.9538,18,2020-10-13T06:50:00.000Z,110,2020-10-13T06:58:19.171Z,45.445679999999996,100,-60.955,100,8.7,100,12.3,100,12.6,100,0.0,100,3.6,100,,-1,,-1,,-1,,-1,,-1,,-1,,-1,,-1,1028.3,100,13.0,100,26,100,22.0,100,5.0,100,8,1,-0.8,1,1028.3,1,1028.3,1028.3,13.0,11.9,26,26,22.0,22.3,5.0,4.0
2020-10-13T07:00:00Z,44488,9302000,East Chedabucto Bay,0.0,45.445,-60.9538,18,2020-10-13T07:00:00.000Z,108,2020-10-13T07:08:24.112Z,45.44568,100,-60.95497,100,8.8,100,12.4,100,12.6,100,0.0,100,3.6,100,0.2,100,0.4,100,6.4,100,0.3,100,0.3,100,7.2,100,4.0,100,8.0,100,1028.3,100,12.6,100,28,100,15.8,100,5.0,100,8,1,-0.9,1,1028.3,1,1028.3,1028.2,12.6,11.5,28,28,15.8,15.5,5.0,4.0
2020-10-13T07:10:00Z,44488,9302000,East Chedabucto Bay,0.0,45.445,-60.9538,18,2020-10-13T07:10:00.000Z,110,2020-10-13T07:21:32.506Z,45.44567,100,-60.954980000000006,100,8.8,100,12.4,100,12.6,100,0.0,100,3.6,100,,-1,,-1,,-1,,-1,,-1,,-1,,-1,,-1,1028.2,100,14.0,100,24,100,18.0,100,5.0,100,8,1,-0.9,1,1028.2,1,1028.2,1028.2,14.0,12.6,24,25,18.0,16.9,5.0,4.0
2020-10-13T07:20:00Z,44488,9302000,East Chedabucto Bay,0.0,45.445,-60.9538,18,2020-10-13T07:20:00.000Z,110,2020-10-13T07:28:31.533Z,45.44565,100,-60.95493,100,8.4,100,12.4,100,12.6,100,0.0,100,3.6,100,,-1,,-1,,-1,,-1,,-1,,-1,,-1,,-1,1028.2,100,14.4,100,5,100,16.9,100,5.0,100,8,1,-0.9,1,1028.2,1,1028.2,1028.2,14.4,13.3,5,5,16.9,17.3,5.0,4.0
2020-10-13T07:30:00Z,44488,9302000,East Chedabucto Bay,0.0,45.445,-60.9538,18,2020-10-13T07:30:00.000Z,110,2020-10-13T07:37:31.660Z,45.445679999999996,100,-60.954969999999996,100,8.3,100,12.5,100,12.6,100,0.0,100,3.6,100,,-1,,-1,,-1,,-1,,-1,,-1,,-1,,-1,1028.3,100,14.8,100,6,100,17.3,100,5.0,100,8,1,-0.8,1,1028.3,1,1028.3,1028.3,14.8,13.3,6,7,17.3,16.2,5.0,4.0
2020-10-13T07:40:00Z,44488,9302000,East Chedabucto Bay,0.0,45.445,-60.9538,18,2020-10-13T07:40:00.000Z,110,2020-10-13T07:47:42.176Z,45.44568,100,-60.95497,100,8.6,100,12.5,100,12.6,100,0.0,100,3.6,100,,-1,,-1,,-1,,-1,,-1,,-1,,-1,,-1,1028.3,100,11.9,100,24,100,15.5,100,5.0,100,6,1,-0.8,1,1028.3,1,1028.3,1028.3,11.9,11.5,24,24,15.5,15.1,5.0,4.0
2020-10-13T07:50:00Z,44488,9302000,East Chedabucto Bay,0.0,45.445,-60.9538,18,2020-10-13T07:50:00.000Z,110,2020-10-13T07:57:43.260Z,45.4457,100,-60.954980000000006,100,8.8,100,12.5,100,12.6,100,0.0,100,3.6,100,,-1,,-1,,-1,,-1,,-1,,-1,,-1,,-1,1028.4,100,11.9,100,49,100,15.8,100,5.0,100,5,1,-0.8,1,1028.4,1,1028.4,1028.4,11.9,10.8,49,50,15.8,14.8,5.0,4.0
2020-10-13T08:00:00Z,44488,9302000,East Chedabucto Bay,0.0,45.445,-60.9538,18,2020-10-13T08:00:00.000Z,108,2020-10-13T08:07:46.091Z,45.44568,100,-60.95497,100,8.8,100,12.5,100,12.6,100,0.0,100,3.6,100,0.2,100,0.5,100,5.9,100,0.3,100,0.3,100,7.1,100,3.7,100,8.0,100,1028.5,100,13.0,100,42,100,17.3,100,5.0,100,5,1,-0.8,1,1028.5,1,1028.5,1028.5,13.0,11.9,42,43,17.3,16.2,5.0,4.0
2020-10-13T08:10:00Z,44488,9302000,East Chedabucto Bay,0.0,45.445,-60.9538,18,2020-10-13T08:10:00.000Z,110,2020-10-13T08:20:48.062Z,45.44565,100,-60.9549,100,8.8,100,12.5,100,12.6,100,0.0,100,3.6,100,,-1,,-1,,-1,,-1,,-1,,-1,,-1,,-1,1028.5,100,13.0,100,35,100,16.2,100,5.0,100,5,1,-0.7,1,1028.5,1,1028.5,1028.5,13.0,11.5,35,35,16.2,15.5,5.0,4.0
2020-10-13T08:20:00Z,44488,9302000,East Chedabucto Bay,0.0,45.445,-60.9538,18,2020-10-13T08:20:00.000Z,110,2020-10-13T08:27:47.354Z,45.445679999999996,100,-60.95495,100,8.9,100,12.5,100,12.6,100,0.0,100,3.6,100,,-1,,-1,,-1,,-1,,-1,,-1,,-1,,-1,1028.7,100,12.2,100,37,100,17.6,100,5.0,100,5,1,-0.5,1,1028.7,1,1028.7,1028.7,12.2,11.2,37,37,17.6,16.9,5.0,4.0
2020-10-13T08:30:00Z,44488,9302000,East Chedabucto Bay,0.0,45.445,-60.9538,18,2020-10-13T08:30:00.000Z,110,2020-10-13T08:37:49.754Z,45.44568,100,-60.95495,100,8.8,100,12.5,100,12.6,100,0.0,100,3.6,100,,-1,,-1,,-1,,-1,,-1,,-1,,-1,,-1,1028.7,100,11.5,100,34,100,18.0,100,5.0,100,5,1,-0.3,1,1028.7,1,1028.7,1028.7,11.5,10.4,34,35,18.0,18.4,5.0,4.0
2020-10-13T08:40:00Z,44488,9302000,East Chedabucto Bay,0.0,45.445,-60.9538,18,2020-10-13T08:40:00.000Z,110,2020-10-13T08:47:59.271Z,45.44567,100,-60.954930000000004,100,8.4,100,12.5,100,12.6,100,0.0,100,3.6,100,,-1,,-1,,-1,,-1,,-1,,-1,,-1,,-1,1028.7,100,14.4,100,9,100,18.0,100,5.0,100,5,1,-0.2,1,1028.7,1,1028.7,1028.7,14.4,13.0,9,10,18.0,16.6,5.0,4.0
2020-10-13T08:50:00Z,44488,9302000,East Chedabucto Bay,0.0,45.445,-60.9538,18,2020-10-13T08:50:00.000Z,110,2020-10-13T08:58:02.427Z,45.44567,100,-60.95497,100,8.7,100,12.5,100,12.5,100,0.0,100,3.6,100,,-1,,-1,,-1,,-1,,-1,,-1,,-1,,-1,1028.6,100,16.2,100,28,100,20.2,100,5.0,100,5,1,-0.2,1,1028.6,1,1028.6,1028.6,16.2,14.8,28,28,20.2,19.1,5.0,4.0
2020-10-13T09:00:00Z,44488,9302000,East Chedabucto Bay,0.0,45.445,-60.9538,18,2020-10-13T09:00:00.000Z,108,2020-10-13T09:08:02.671Z,45.44565,100,-60.95495,100,8.7,100,12.5,100,12.6,100,0.0,100,3.6,100,0.2,100,0.5,100,4.5,100,0.3,100,0.3,100,5.8,100,3.4,100,7.4,100,1028.7,100,15.5,100,30,100,20.5,100,5.0,100,5,1,-0.1,1,1028.7,1,1028.7,1028.7,15.5,14.4,30,31,20.5,18.7,5.0,4.0
2020-10-13T09:10:00Z,44488,9302000,East Chedabucto Bay,0.0,45.445,-60.9538,18,2020-10-13T09:10:00.000Z,110,2020-10-13T09:21:05.684Z,45.44568,100,-60.95497,100,8.7,100,12.5,100,12.6,100,0.0,100,3.6,100,,-1,,-1,,-1,,-1,,-1,,-1,,-1,,-1,1028.6,100,14.0,100,35,100,17.3,100,5.0,100,5,1,0.0,1,1028.6,1,1028.6,1028.6,14.0,13.0,35,36,17.3,16.6,5.0,4.0
2020-10-13T09:20:00Z,44488,9302000,East Chedabucto Bay,0.0,45.445,-60.9538,18,2020-10-13T09:20:00.000Z,110,2020-10-13T09:28:08.680Z,45.44567,100,-60.95495,100,8.8,100,12.5,100,12.6,100,0.0,100,3.6,100,,-1,,-1,,-1,,-1,,-1,,-1,,-1,,-1,1028.6,100,15.1,100,38,100,19.4,100,5.0,100,5,1,-0.1,1,1028.6,1,1028.6,1028.6,15.1,14.0,38,39,19.4,18.7,5.0,4.0
2020-10-13T09:30:00Z,44488,9302000,East Chedabucto Bay,0.0,45.445,-60.9538,18,2020-10-13T09:30:00.000Z,110,2020-10-13T09:38:13.078Z,45.44565,100,-60.95497,100,8.8,100,12.5,100,12.6,100,0.0,100,3.6,100,,-1,,-1,,-1,,-1,,-1,,-1,,-1,,-1,1028.5,100,16.2,100,34,100,20.2,100,5.0,100,0,1,0.1,1,1028.5,1,1028.5,1028.5,16.2,14.8,34,35,20.2,19.1,5.0,4.0
2020-10-13T09:40:00Z,44488,9302000,East Chedabucto Bay,0.0,45.445,-60.9538,18,2020-10-13T09:40:00.000Z,110,2020-10-13T09:48:07.647Z,45.44565,100,-60.95495,100,8.8,100,12.5,100,12.5,100,0.0,100,3.6,100,,-1,,-1,,-1,,-1,,-1,,-1,,-1,,-1,1028.5,100,17.3,100,31,100,21.2,100,5.0,100,0,1,0.1,1,1028.5,1,1028.5,1028.5,17.3,15.8,31,32,21.2,19.4,5.0,4.0
2020-10-13T09:50:00Z,44488,9302000,East Chedabucto Bay,0.0,45.445,-60.9538,18,2020-10-13T09:50:00.000Z,110,2020-10-13T09:58:09.080Z,45.44565,100,-60.954969999999996,100,8.8,100,12.6,100,12.5,100,0.0,100,3.6,100,,-1,,-1,,-1,,-1,,-1,,-1,,-1,,-1,1028.5,100,19.8,100,30,100,25.2,100,5.0,100,0,1,0.2,1,1028.5,1,1028.5,1028.5,19.8,18.4,30,31,25.2,24.1,5.0,4.0
2020-10-13T10:00:00Z,44488,9302000,East Chedabucto Bay,0.0,45.445,-60.9538,18,2020-10-13T10:00:00.000Z,108,2020-10-13T10:08:24.767Z,45.44567,100,-60.95497,100,8.8,100,12.6,100,12.5,100,0.0,100,3.6,100,0.2,100,0.5,100,4.7,100,0.3,100,0.4,100,5.8,100,3.4,100,9.1,100,1028.5,100,20.5,100,33,100,23.8,100,5.0,100,0,1,0.2,1,1028.5,1,1028.5,1028.4,20.5,19.1,33,34,23.8,23.4,5.0,4.0
2020-10-13T10:10:00Z,44488,9302000,East Chedabucto Bay,0.0,45.445,-60.9538,18,2020-10-13T10:10:00.000Z,110,2020-10-13T10:21:23.042Z,45.44565,100,-60.954980000000006,100,8.8,100,12.6,100,12.5,100,0.0,100,3.6,100,,-1,,-1,,-1,,-1,,-1,,-1,,-1,,-1,1028.4,100,19.8,100,34,100,24.5,100,5.0,100,0,1,0.2,1,1028.4,1,1028.4,1028.4,19.8,18.7,34,35,24.5,23.4,5.0,4.0
2020-10-13T10:20:00Z,44488,9302000,East Chedabucto Bay,0.0,45.445,-60.9538,18,2020-10-13T10:20:00.000Z,110,2020-10-13T10:28:25.761Z,45.44562,100,-60.95488,100,8.8,100,12.6,100,12.5,100,0.0,100,3.6,100,,-1,,-1,,-1,,-1,,-1,,-1,,-1,,-1,1028.4,100,20.2,100,33,100,23.8,100,5.0,100,0,1,0.2,1,1028.4,1,1028.4,1028.4,20.2,19.1,33,34,23.8,23.0,5.0,4.0